Tracking 34352 objects as of 8-Jun-2026
HD Live streaming from Space Station
objects crossing your sky now

NOAA 16 DEB

Track NOAA 16 DEB now!
10-day predictions


NORAD ID: 41366
Int'l Code: 2000-055JK
Perigee: 744.1 km
Apogee: 778.1 km
Inclination: 98.9 °
Period: 99.9 minutes
Semi major axis: 7132 km
RCS: Unknown
Launch date: September 21, 2000
Source: United States (US)
Launch site: AIR FORCE WESTERN TEST RANGE (AFWTR)

Note: This is SATELLITE DEBRIS
Your satellite tracking list
Your tracking list is empty




NASA's NSSDC Master Catalog

Two Line Element Set (TLE):
1 41366U 00055JK  26158.14951967  .00009951  00000-0  30727-2 0  9999
2 41366  98.9382 275.4806 0023822 266.4449  93.4014 14.41374474532454
Source of the keplerian elements: AFSPC